Flag for U.S.A. Weather past 2 weeks in Olympia, Washington, U.S.A.

Now
41 °F

Fog.


Feels Like: 41 °F
Forecast: 36 / 44 °F
Wind: No wind

Location: Olympia Airport

Current Time: Dec 26, 2014 at 12:57:06 PM

Latest Report: Dec 26, 2014 at 12:01 PM


Visibility: 2 mi

Pressure: 30.37 "Hg

Humidity: 89%

Dew point: 38 °F

Location of OlympiaLocation

Historic Weather in Olympia — Graph

°F

Olympia temperature yesterday

Maximum temperature yesterday: 40 °F (at 2:54 PM)
Minimum temperature yesterday: 28 °F (at 1:54 AM)
Average temperature yesterday: 36 °F

Past Weeks' High & Low Weather Summary

 TemperatureHumidityPressure
High57 °F (Dec 11, 4:54 PM)100% (Dec 12, 8:58 PM)30.38 "Hg (Dec 12, 8:58 PM)
Low25 °F (Dec 14, 11:54 PM)58% (Dec 11, 5:54 PM)29.11 "Hg (Dec 11, 3:54 PM)
Average43 °F90%29.96 "Hg
* Reported Dec 11 10:54 AM — Dec 26 10:54 AM, Olympia, Weather by CustomWeather, © 2014

Note: Actual official high and low records may vary slightly from our data, if they occured in-between our weather recording intervals... More about our weather records

Advertising

Olympia weather history for previous 24 hours

 ConditionsComfort  
Time TempWeatherWind HumidityBarometerVisibility
10:54 AM
Dec 26
39 °FOvercast.No wind89%30.38 "Hg10 mi
9:54 AM38 °FLow clouds.3 mph93%30.38 "Hg10 mi
9:00 AM37 °FMostly cloudy.3 mph96%30.37 "Hg9 mi
7:54 AM37 °FOvercast.No wind96%30.35 "Hg10 mi
6:54 AM38 °FFog.No wind93%30.34 "Hg3 mi
5:54 AM38 °FFog.No wind97%30.35 "Hg1 mi
4:54 AM38 °FFog.No wind97%30.33 "Hg1 mi
3:54 AM38 °FFog.No wind97%30.33 "Hg6 mi
2:54 AM38 °FFog.No wind97%30.33 "Hg5 mi
1:54 AM38 °FFog.No wind97%30.32 "Hg5 mi
1:02 AM38 °FLow clouds.No wind97%30.30 "Hg9 mi
12:54 AM38 °FLow clouds.No wind97%30.30 "Hg9 mi
11:54 PM
Dec 25
38 °FFog.No wind97%30.30 "Hg1 mi
10:54 PM39 °FFog.3 mph96%30.31 "Hg2 mi
9:54 PM39 °FFog.3 mph96%30.30 "Hg4 mi
8:54 PM39 °FLow clouds.No wind96%30.29 "Hg7 mi
8:03 PM40 °FLow clouds.3 mph89%30.27 "Hg8 mi
7:54 PM40 °FLow clouds.No wind93%30.28 "Hg8 mi
6:54 PM39 °FFog.No wind96%30.26 "Hg5 mi
5:54 PM39 °FLow clouds.No wind93%30.26 "Hg7 mi
4:54 PM39 °FLow clouds.5 mph93%30.25 "Hg8 mi
3:54 PM40 °FLow clouds.3 mph89%30.25 "Hg7 mi
2:54 PM40 °FLow clouds.5 mph89%30.24 "Hg8 mi
1:54 PM39 °FLow clouds.No wind96%30.22 "Hg9 mi
12:54 PM39 °FFog.No wind93%30.22 "Hg3 mi
Weather by CustomWeather, © 2014

See weather overviewHow to use our weather pages